Location: Wapato
(46.4478°N, 120.4212°W)
Time: 22:41:33
(UTC+00:00)

Vanguard 1 Rocket - Pass Details

Date: 11 May 2026
Orbit: 656 x 4211 km, 34.3° (Epoch: 7 June)

Event Time Altitude Azimuth Distance (km) Brightness Sun altitude
Rises 03:48:45 0° 268° (W) 6,043 12.7 -4.7°
Reaches altitude 10° 03:52:11 10° 264° (W) 5,419 12.2 -5.2°
Maximum altitude 04:09:25 53° 194° (SSW) 4,320 10.7 -7.6°
Enters shadow 04:32:55 12° 128° (SE) 7,206 11.3 -10.8°
